EDT,Max TemperatureF,Mean TemperatureF,Min TemperatureF,Max Dew PointF,MeanDew PointF,Min DewpointF,Max Humidity, Mean Humidity, Min Humidity, Max Sea Level PressureIn, Mean Sea Level PressureIn, Min Sea Level PressureIn, Max VisibilityMiles, Mean VisibilityMiles, Min VisibilityMiles, Max Wind SpeedMPH, Mean Wind SpeedMPH, Max Gust SpeedMPH,PrecipitationIn, CloudCover, Events, WindDirDegrees
2013-3-1,50,37,24,36,29,25,100,77,40,29.95,29.91,29.86,10,10,8,10,2,,0.00,3,,297
2013-3-2,46,40,35,37,33,25,100,79,50,29.94,29.89,29.85,10,10,8,10,2,,0.00,4,Rain,341
2013-3-3,46,34,23,27,20,16,100,61,29,30.02,29.95,29.90,10,10,10,12,3,16,0.00,0,,321
2013-3-4,53,36,19,28,19,12,100,57,19,30.16,30.09,30.02,10,10,10,12,2,,0.00,0,,272
2013-3-5,64,48,32,57,42,28,100,81,52,30.08,29.90,29.63,10,10,4,18,2,24,0.07,4,Rain,200
2013-3-6,53,44,33,46,26,19,87,54,30,30.13,29.87,29.63,10,10,10,20,14,29,0.00,1,,288
2013-3-7,55,40,24,32,27,25,100,66,33,30.26,30.19,30.13,10,10,10,14,3,20,0.00,0,,330
2013-3-8,57,42,26,28,24,18,100,59,21,30.33,30.27,30.20,10,10,10,16,4,22,0.00,0,,355
2013-3-9,64,45,26,37,30,25,100,64,24,30.36,30.29,30.24,10,10,10,7,2,,0.00,0,,42
2013-3-10,68,50,32,41,35,28,100,62,26,30.31,30.24,30.17,10,10,10,7,1,,0.00,0,,168
2013-3-11,71,54,37,59,42,21,100,65,43,30.22,30.05,29.88,10,10,8,9,2,20,0.01,1,Rain,153
2013-3-12,69,60,50,63,52,27,100,77,33,29.99,29.84,29.78,10,8,2,14,6,18,0.29,4,Rain,223
2013-3-13,59,44,30,37,26,16,100,52,21,30.16,30.06,29.98,10,10,8,17,6,25,0.00,1,,292
2013-3-14,53,38,24,27,19,14,93,51,21,30.30,30.22,30.17,10,10,10,12,3,16,0.00,0,,308
2013-3-15,68,47,26,39,30,21,100,61,27,30.23,30.09,29.94,10,10,7,12,2,21,0.00,0,,210
2013-3-16,77,66,55,46,39,32,55,40,21,29.94,29.87,29.77,10,10,10,22,8,31,0.00,0,,225
2013-3-17,75,62,50,50,44,37,76,49,34,30.08,29.94,29.89,10,10,10,13,6,18,0.00,1,,217
2013-3-18,50,46,41,48,44,41,100,94,71,30.13,30.04,29.88,10,7,2,14,6,23,0.27,6,Rain-Thunderstorm,41
2013-3-19,68,55,42,50,34,16,100,61,14,30.05,29.94,29.85,10,8,0,15,5,25,0.00,3,Fog,297
2013-3-20,57,44,32,36,22,9,93,47,17,30.13,29.99,29.80,10,10,10,9,2,,0.00,1,,296
2013-3-21,48,39,30,27,13,5,80,37,17,29.97,29.85,29.80,10,10,10,21,6,32,0.00,0,,305
2013-3-22,50,36,23,32,18,10,86,50,25,30.11,30.04,29.98,10,10,10,9,1,17,0.00,2,Rain,244
2013-3-23,50,41,32,48,40,28,100,93,65,30.06,30.00,29.92,10,8,2,5,0,,0.04,5,Rain,37
2013-3-24,44,42,39,45,42,39,100,100,100,29.91,29.70,29.56,10,4,1,16,5,24,0.81,7,Rain,34
2013-3-25,46,40,35,41,29,21,100,66,37,29.92,29.70,29.57,10,9,1,22,8,31,0.00,4,,247
2013-3-26,48,37,26,27,24,21,93,57,37,30.18,30.02,29.92,10,10,10,14,6,20,0.00,2,Rain,278
2013-3-27,55,40,26,32,23,19,93,52,25,30.27,30.22,30.17,10,10,10,10,5,18,0.00,0,,311
2013-3-28,57,40,24,28,24,16,100,61,20,30.32,30.26,30.19,10,10,10,14,3,18,0.00,0,Rain,313
2013-3-29,62,43,24,39,27,19,100,59,20,30.37,30.29,30.21,10,10,10,12,1,,0.00,1,Rain,258
2013-3-30,68,57,46,50,45,39,100,74,35,30.24,30.16,30.08,10,10,5,8,2,,0.00,1,Rain,41
2013-3-31,71,60,50,59,53,48,100,82,46,30.08,29.93,29.85,10,9,1,18,4,24,0.12,3,Rain,216